Weather History for Yakima, WA

Change the Weather History Date:

Saturday, October 8, 2011

  Actual Average Record
Temperature  
Mean Temperature 51 °F 52 °F  
Max Temperature 66 °F 68 °F 84 °F (1988)
Min Temperature 35 °F 36 °F 23 °F (1985)
Degree Days  
Heating Degree Days 14 13  
Month to date heating degree days 74 91  
Since 1 July heating degree days 181 299  
Cooling Degree Days 0 0  
Month to date cooling degree days 0 0  
Year to date cooling degree days 485 472  
Moisture  
Dew Point 39 °F    
Average Humidity 66    
Maximum Humidity 92    
Minimum Humidity 39    
Precipitation  
Precipitation 0.00 in 0.01 in 0.68 in (1997)
Month to date precipitation 0.71 0.10  
Year to date precipitation 6.33 5.23  
Snow  
Snow 0.00 in 0.00 in 0.00 in (2002)
Month to date snowfall 0.0 0.0  
Year to date snowfall 5.3 8.6  
Since 1 July snowfall 0.0 0.0  
Snow Depth 0.00 in    
Sea Level Pressure  
Sea Level Pressure 30.18 in    
Wind  
Wind Speed 4 mph (West)    
Max Wind Speed 15 mph    
Max Gust Speed 0 mph    
Visibility 10 miles    
Events      
T = Trace of Precipitation, MM = Missing Value Source: NWS Daily Summary

Daily Weather History Graph

Daily Weather History Graph

Search for Another Location

Airport:

Trip Planner

Search our weather history database for the weather conditions in past years. The results will help you decide how hot, cold, wet, or windy it might be!

Date:

Astronomy

Oct. 08, 2011 Rise Set
Actual Time 7:09 AM PDT 6:28 PM PDT
Civil Twilight 6:39 AM PDT 6:58 PM PDT
Nautical Twilight 6:04 AM PDT 7:33 PM PDT
Astronomical Twilight 5:29 AM PDT 8:08 PM PDT
Moon 4:48 PM PDT (10/8) 3:52 AM PDT (10/8)
Length of Visible Light 12h 19m
Length of Day
11h 18m
Waxing Gibbous, 90% of the Moon is Illuminated
Oct 8
Waxing Gibbous
Oct 11
Full
Oct 19
Last Quarter
Oct 26
New
Nov 2
First Quarter

Hourly Weather History & Observations

Time (PDT) Temp. Windchill Dew Point Humidity Pressure Visibility Wind Dir Wind Speed Gust Speed Precip Events Conditions
12:53 AM 43.0 °F 39.5 °F 37.9 °F 82% 30.20 in 10.0 mi WNW 5.8 mph - N/A   Clear
1:53 AM 41.0 °F 39.0 °F 37.0 °F 86% 30.22 in 10.0 mi West 3.5 mph - N/A   Clear
2:53 AM 39.0 °F 34.8 °F 36.0 °F 89% 30.23 in 10.0 mi WNW 5.8 mph - N/A   Clear
3:53 AM 39.2 °F 34.2 °F 35.6 °F 87% 30.23 in 10.0 mi West 6.9 mph - N/A   Clear
4:53 AM 37.9 °F 34.4 °F 35.1 °F 89% 30.24 in 10.0 mi West 4.6 mph - N/A   Clear
5:53 AM 39.0 °F 34.8 °F 36.0 °F 89% 30.24 in 10.0 mi West 5.8 mph - N/A   Clear
6:53 AM 36.0 °F 32.1 °F 34.0 °F 93% 30.25 in 10.0 mi West 4.6 mph - N/A   Clear
7:53 AM 41.0 °F 37.1 °F 37.0 °F 86% 30.25 in 10.0 mi WSW 5.8 mph - N/A   Clear
8:53 AM 46.9 °F - 39.0 °F 74% 30.27 in 10.0 mi West 5.8 mph - N/A   Clear
9:53 AM 53.1 °F - 39.9 °F 61% 30.25 in 10.0 mi Calm Calm - N/A   Partly Cloudy
10:53 AM 55.9 °F - 39.0 °F 53% 30.24 in 10.0 mi Calm Calm - N/A   Partly Cloudy
11:53 AM 60.8 °F - 39.2 °F 45% 30.22 in 10.0 mi Calm Calm - N/A   Partly Cloudy
12:53 PM 62.1 °F - 37.9 °F 41% 30.21 in 10.0 mi Calm Calm - N/A   Partly Cloudy
1:53 PM 63.0 °F - 39.9 °F 43% 30.17 in 10.0 mi ENE 4.6 mph - N/A   Clear
2:53 PM 64.9 °F - 41.0 °F 42% 30.16 in 10.0 mi Variable 3.5 mph - N/A   Partly Cloudy
3:53 PM 64.9 °F - 41.0 °F 42% 30.14 in 10.0 mi East 4.6 mph - N/A   Partly Cloudy
4:53 PM 64.4 °F - 41.0 °F 42% 30.12 in 10.0 mi SE 4.6 mph - N/A   Partly Cloudy
5:53 PM 62.1 °F - 44.1 °F 52% 30.12 in 10.0 mi SSE 4.6 mph - N/A   Partly Cloudy
6:53 PM 51.8 °F - 44.6 °F 76% 30.10 in 10.0 mi SSW 3.5 mph - N/A   Clear
7:53 PM 46.9 °F - 42.1 °F 83% 30.13 in 10.0 mi WNW 5.8 mph - N/A   Clear
8:53 PM 46.9 °F - 42.1 °F 83% 30.11 in 10.0 mi Calm Calm - N/A   Clear
9:53 PM 45.0 °F 41.8 °F 41.0 °F 86% 30.11 in 10.0 mi West 5.8 mph - N/A   Clear
10:53 PM 42.8 °F 39.3 °F 39.2 °F 87% 30.10 in 10.0 mi West 5.8 mph - N/A   Clear
11:53 PM 44.1 °F 40.8 °F 41.0 °F 89% 30.10 in 10.0 mi WNW 5.8 mph - N/A   Clear